| time (UTC) | temp C | wind direction | speed KPH | gust KPH | rain 1hr cm | rain 24hr cm | rain mn cm | humidity % | barometer mb |
| 20260507232602 | 10 | 13 | 4.8 | 14.5 | 0.00 | 0.03 | 0.03 | 43 | 1019.1 |
| 20260507232056 | 10 | 90 | 3.2 | 8.0 | 0.00 | 0.03 | 0.03 | 47 | 1019.2 |
| 20260507231550 | 10 | 359 | 4.8 | 9.7 | 0.00 | 0.03 | 0.03 | 45 | 1019.1 |
| 20260507231044 | 10 | 27 | 4.8 | 12.9 | 0.00 | 0.03 | 0.03 | 44 | 1019.1 |
| 20260507230538 | 10 | 8 | 3.2 | 12.9 | 0.00 | 0.03 | 0.03 | 46 | 1019.1 |
| 20260507230032 | 10 | 75 | 4.8 | 9.7 | 0.00 | 0.03 | 0.03 | 44 | 1019.1 |
| 20260507225526 | 10 | 111 | 6.4 | 16.1 | 0.00 | 0.03 | 0.03 | 48 | 1019.1 |
| 20260507225020 | 9 | 8 | 6.4 | 16.1 | 0.00 | 0.03 | 0.03 | 46 | 1019.1 |
| 20260507224514 | 9 | 52 | 6.4 | 12.9 | 0.00 | 0.03 | 0.03 | 48 | 1019.1 |
| 20260507224226 | 9 | 18 | 4.8 | 9.7 | 0.00 | 0.03 | 0.03 | 46 | 1019.1 |
| 20260507223502 | 9 | 11 | 3.2 | 8.0 | 0.00 | 0.03 | 0.03 | 46 | 1019.1 |
| 20260507222956 | 9 | 282 | 1.6 | 4.8 | 0.00 | 0.03 | 0.03 | 45 | 1019.2 |
| 20260507222450 | 9 | 189 | 1.6 | 6.4 | 0.00 | 0.03 | 0.03 | 47 | 1019.1 |
| 20260507221943 | 9 | 189 | 3.2 | 6.4 | 0.00 | 0.03 | 0.03 | 47 | 1019.1 |
| 20260507221436 | 8 | 224 | 3.2 | 4.8 | 0.00 | 0.03 | 0.03 | 52 | 1019.2 |
| 20260507220931 | 8 | 239 | 3.2 | 4.8 | 0.00 | 0.03 | 0.03 | 50 | 1019.1 |
| 20260507220648 | 8 | 204 | 3.2 | 4.8 | 0.00 | 0.03 | 0.03 | 51 | 1019.2 |
| 20260507215918 | 8 | 220 | 3.2 | 6.4 | 0.00 | 0.03 | 0.03 | 50 | 1019.2 |
| 20260507215412 | 8 | 252 | 3.2 | 6.4 | 0.00 | 0.03 | 0.03 | 50 | 1019.4 |
| 20260507214906 | 8 | 208 | 1.6 | 6.4 | 0.00 | 0.03 | 0.03 | 48 | 1019.4 |
| 20260507214401 | 8 | 175 | 1.6 | 6.4 | 0.00 | 0.03 | 0.03 | 48 | 1019.4 |
| 20260507213855 | 8 | 176 | 1.6 | 6.4 | 0.00 | 0.03 | 0.03 | 47 | 1019.5 |
| 20260507213612 | 8 | 241 | 1.6 | 6.4 | 0.00 | 0.03 | 0.03 | 50 | 1019.5 |
| 20260507212857 | 8 | 359 | 1.6 | 8.0 | 0.00 | 0.03 | 0.03 | 45 | 1019.6 |
| 20260507212337 | 8 | 21 | 3.2 | 8.0 | 0.00 | 0.03 | 0.03 | 49 | 1019.6 |
| 20260507211830 | 8 | 150 | 4.8 | 8.0 | 0.00 | 0.03 | 0.03 | 48 | 1019.6 |
| 20260507211325 | 8 | 141 | 8.0 | 16.1 | 0.00 | 0.03 | 0.03 | 46 | 1019.8 |
| 20260507210819 | 8 | 79 | 9.7 | 16.1 | 0.00 | 0.03 | 0.03 | 42 | 1019.8 |
| 20260507210312 | 8 | 85 | 9.7 | 22.5 | 0.00 | 0.03 | 0.03 | 45 | 1019.8 |
| 20260507210031 | 8 | 73 | 8.0 | 22.5 | 0.00 | 0.03 | 0.03 | 42 | 1019.8 |
| 20260507205301 | 8 | 112 | 4.8 | 17.7 | 0.00 | 0.03 | 0.03 | 49 | 1019.8 |
| 20260507204754 | 8 | 111 | 4.8 | 11.3 | 0.00 | 0.03 | 0.03 | 49 | 1019.8 |
| 20260507204248 | 8 | 120 | 4.8 | 11.3 | 0.00 | 0.03 | 0.03 | 45 | 1019.9 |
| 20260507204006 | 9 | 58 | 9.7 | 19.3 | 0.00 | 0.03 | 0.03 | 43 | 1019.9 |
| 20260507203246 | 8 | 66 | 12.9 | 19.3 | 0.00 | 0.03 | 0.03 | 46 | 1020.0 |
| 20260507203004 | 9 | 108 | 11.3 | 22.5 | 0.00 | 0.03 | 0.03 | 45 | 1019.9 |
| 20260507202246 | 9 | 109 | 11.3 | 22.5 | 0.00 | 0.03 | 0.03 | 42 | 1020.0 |
| 20260507201747 | 9 | 63 | 8.0 | 22.5 | 0.00 | 0.03 | 0.03 | 44 | 1020.2 |
| 20260507201247 | 9 | 41 | 4.8 | 16.1 | 0.00 | 0.03 | 0.03 | 43 | 1020.2 |
| 20260507200747 | 8 | 8 | 8.0 | 19.3 | 0.00 | 0.03 | 0.03 | 43 | 1020.4 |
| 20260507200247 | 8 | 130 | 9.7 | 20.9 | 0.00 | 0.03 | 0.03 | 45 | 1020.4 |
| 20260507195746 | 8 | 39 | 9.7 | 22.5 | 0.00 | 0.03 | 0.03 | 46 | 1020.4 |
| 20260507195517 | 8 | 111 | 11.3 | 22.5 | 0.00 | 0.03 | 0.03 | 46 | 1020.3 |
| 20260507194747 | 8 | 52 | 9.7 | 20.9 | 0.00 | 0.03 | 0.03 | 40 | 1020.4 |
| 20260507194243 | 9 | 60 | 6.4 | 16.1 | 0.00 | 0.03 | 0.03 | 43 | 1020.4 |
| 20260507193742 | 9 | 59 | 9.7 | 19.3 | 0.00 | 0.03 | 0.03 | 38 | 1020.5 |
| 20260507193242 | 9 | 102 | 8.0 | 19.3 | 0.00 | 0.03 | 0.03 | 45 | 1020.7 |
| 20260507192743 | 9 | 147 | 6.4 | 17.7 | 0.00 | 0.03 | 0.03 | 41 | 1020.7 |
| 20260507192243 | 9 | 331 | 6.4 | 17.7 | 0.00 | 0.03 | 0.03 | 43 | 1020.9 |
| 20260507191743 | 9 | 21 | 6.4 | 14.5 | 0.00 | 0.03 | 0.03 | 43 | 1020.8 |
| 20260507191243 | 9 | 168 | 6.4 | 12.9 | 0.00 | 0.03 | 0.03 | 47 | 1020.7 |
| 20260507190743 | 9 | 281 | 4.8 | 11.3 | 0.00 | 0.03 | 0.03 | 43 | 1020.7 |
| 20260507190243 | 9 | 188 | 3.2 | 9.7 | 0.00 | 0.03 | 0.03 | 46 | 1020.9 |
| 20260507185740 | 8 | 206 | 4.8 | 12.9 | 0.00 | 0.03 | 0.03 | 48 | 1020.9 |
| 20260507185238 | 8 | 71 | 4.8 | 14.5 | 0.00 | 0.03 | 0.03 | 42 | 1021.1 |
| 20260507184954 | 8 | 230 | 6.4 | 16.1 | 0.00 | 0.03 | 0.03 | 42 | 1020.9 |
| 20260507184239 | 8 | 199 | 8.0 | 19.3 | 0.00 | 0.03 | 0.03 | 50 | 1020.9 |
| 20260507183739 | 8 | 218 | 9.7 | 20.9 | 0.00 | 0.03 | 0.03 | 46 | 1020.9 |
| 20260507183238 | 8 | 212 | 9.7 | 20.9 | 0.00 | 0.03 | 0.03 | 44 | 1020.9 |
| 20260507182738 | 8 | 191 | 8.0 | 17.7 | 0.00 | 0.03 | 0.03 | 42 | 1020.9 |
| 20260507182240 | 8 | 173 | 8.0 | 16.1 | 0.00 | 0.03 | 0.03 | 49 | 1020.9 |
| 20260507181739 | 8 | 125 | 9.7 | 24.1 | 0.00 | 0.03 | 0.03 | 43 | 1020.9 |
| 20260507181231 | 8 | 4 | 9.7 | 24.1 | 0.00 | 0.03 | 0.03 | 36 | 1020.9 |
| 20260507180725 | 8 | 44 | 9.7 | 20.9 | 0.00 | 0.03 | 0.03 | 41 | 1021.1 |
| 20260507180220 | 8 | 89 | 8.0 | 20.9 | 0.00 | 0.03 | 0.03 | 40 | 1021.1 |
| 20260507175714 | 9 | 57 | 3.2 | 11.3 | 0.00 | 0.03 | 0.03 | 38 | 1021.2 |
| 20260507175441 | 9 | 72 | 3.2 | 8.0 | 0.00 | 0.03 | 0.03 | 41 | 1021.2 |
| 20260507174701 | 8 | 44 | 4.8 | 8.0 | 0.00 | 0.03 | 0.03 | 41 | 1021.2 |
| 20260507174156 | 8 | 32 | 6.4 | 19.3 | 0.00 | 0.03 | 0.03 | 39 | 1021.2 |
| 20260507173650 | 8 | 344 | 6.4 | 19.3 | 0.00 | 0.03 | 0.03 | 37 | 1021.2 |
| 20260507173144 | 8 | 316 | 4.8 | 14.5 | 0.00 | 0.03 | 0.03 | 39 | 1021.2 |
| 20260507172901 | 8 | 359 | 8.0 | 16.1 | 0.00 | 0.03 | 0.03 | 39 | 1021.2 |
| 20260507172132 | 7 | 53 | 9.7 | 19.3 | 0.00 | 0.03 | 0.03 | 38 | 1021.3 |
| 20260507171626 | 8 | 34 | 8.0 | 19.3 | 0.00 | 0.03 | 0.03 | 35 | 1021.3 |
| 20260507171119 | 8 | 35 | 4.8 | 12.9 | 0.00 | 0.03 | 0.03 | 32 | 1021.3 |
| 20260507170614 | 8 | 14 | 4.8 | 11.3 | 0.00 | 0.03 | 0.03 | 36 | 1021.3 |
| 20260507170108 | 8 | 287 | 4.8 | 11.3 | 0.00 | 0.03 | 0.03 | 37 | 1021.3 |
| 20260507165601 | 9 | 241 | 3.2 | 8.0 | 0.00 | 0.03 | 0.03 | 44 | 1021.5 |
| 20260507165057 | 8 | 111 | 1.6 | 4.8 | 0.00 | 0.03 | 0.03 | 43 | 1021.5 |
| 20260507164550 | 8 | 304 | 3.2 | 8.0 | 0.00 | 0.03 | 0.03 | 44 | 1021.5 |
| 20260507164044 | 8 | 219 | 3.2 | 8.0 | 0.00 | 0.03 | 0.03 | 49 | 1021.5 |
| 20260507163538 | 8 | 248 | 3.2 | 9.7 | 0.00 | 0.03 | 0.03 | 47 | 1021.5 |
| 20260507163032 | 7 | 249 | 3.2 | 9.7 | 0.00 | 0.03 | 0.03 | 46 | 1021.5 |
| 20260507162525 | 8 | 70 | 3.2 | 9.7 | 0.00 | 0.03 | 0.03 | 43 | 1021.5 |
| 20260507162019 | 8 | 56 | 3.2 | 9.7 | 0.00 | 0.03 | 0.03 | 44 | 1021.5 |
| 20260507161739 | 9 | 164 | 1.6 | 6.4 | 0.00 | 0.03 | 0.03 | 44 | 1021.5 |
| 20260507161008 | 9 | 158 | 1.6 | 6.4 | 0.00 | 0.03 | 0.03 | 51 | 1021.5 |
| 20260507160501 | 8 | 158 | 3.2 | 6.4 | 0.00 | 0.03 | 0.03 | 50 | 1021.5 |
| 20260507155956 | 8 | 169 | 3.2 | 8.0 | 0.00 | 0.03 | 0.03 | 50 | 1021.5 |
| 20260507155449 | 8 | 163 | 3.2 | 8.0 | 0.00 | 0.03 | 0.03 | 56 | 1021.3 |
| 20260507154944 | 8 | 156 | 3.2 | 8.0 | 0.00 | 0.03 | 0.03 | 59 | 1021.3 |
| 20260507154706 | 8 | 172 | 3.2 | 8.0 | 0.00 | 0.03 | 0.03 | 60 | 1021.3 |
| 20260507153932 | 8 | 188 | 3.2 | 6.4 | 0.00 | 0.03 | 0.03 | 55 | 1021.3 |
| 20260507153425 | 7 | 210 | 3.2 | 6.4 | 0.00 | 0.03 | 0.03 | 55 | 1021.2 |
| 20260507152920 | 7 | 181 | 4.8 | 9.7 | 0.00 | 0.03 | 0.03 | 58 | 1021.3 |
| 20260507152414 | 7 | 181 | 6.4 | 11.3 | 0.00 | 0.03 | 0.03 | 50 | 1021.3 |
| 20260507151908 | 7 | 191 | 6.4 | 12.9 | 0.00 | 0.03 | 0.03 | 56 | 1021.3 |
| 20260507151402 | 6 | 183 | 6.4 | 12.9 | 0.00 | 0.03 | 0.03 | 58 | 1021.3 |
| 20260507150856 | 6 | 212 | 4.8 | 11.3 | 0.00 | 0.03 | 0.03 | 60 | 1021.3 |
| 20260507150350 | 6 | 193 | 6.4 | 11.3 | 0.00 | 0.03 | 0.03 | 54 | 1021.2 |
| 20260507145843 | 6 | 189 | 6.4 | 9.7 | 0.00 | 0.03 | 0.03 | 59 | 1021.2 |
| 20260507145339 | 5 | 184 | 6.4 | 9.7 | 0.00 | 0.03 | 0.03 | 60 | 1021.2 |
| 20260507144832 | 5 | 206 | 6.4 | 9.7 | 0.00 | 0.03 | 0.03 | 65 | 1021.2 |
| 20260507144326 | 5 | 193 | 6.4 | 9.7 | 0.00 | 0.03 | 0.03 | 64 | 1021.2 |
| 20260507143819 | 5 | 188 | 6.4 | 9.7 | 0.00 | 0.03 | 0.03 | 64 | 1021.2 |
| 20260507143314 | 4 | 191 | 6.4 | 9.7 | 0.00 | 0.03 | 0.03 | 64 | 1021.1 |
| 20260507142808 | 3 | 201 | 4.8 | 9.7 | 0.00 | 0.03 | 0.03 | 68 | 1021.1 |
| 20260507142302 | 3 | 177 | 4.8 | 9.7 | 0.00 | 0.03 | 0.03 | 69 | 1020.9 |
| 20260507141756 | 2 | 201 | 4.8 | 9.7 | 0.00 | 0.03 | 0.03 | 72 | 1020.9 |
| 20260507141249 | 2 | 199 | 6.4 | 9.7 | 0.00 | 0.03 | 0.03 | 74 | 1020.9 |
| 20260507140743 | 2 | 213 | 8.0 | 12.9 | 0.03 | 0.03 | 0.03 | 73 | 1021.2 |
| 20260507140503 | 1 | 222 | 8.0 | 16.1 | 0.03 | 0.03 | 0.03 | 72 | 1021.1 |
| 20260507135732 | 1 | 221 | 9.7 | 16.1 | 0.03 | 0.03 | 0.03 | 70 | 1021.2 |
| 20260507135225 | 1 | 228 | 8.0 | 12.9 | 0.03 | 0.03 | 0.03 | 71 | 1021.1 |
| 20260507134936 | 1 | 218 | 8.0 | 12.9 | 0.03 | 0.03 | 0.03 | 72 | 1021.2 |
| 20260507134214 | 2 | 229 | 8.0 | 12.9 | 0.03 | 0.03 | 0.03 | 68 | 1021.1 |
| 20260507133708 | 2 | 218 | 6.4 | 11.3 | 0.03 | 0.03 | 0.03 | 69 | 1021.1 |
| 20260507133201 | 2 | 220 | 1.6 | 8.0 | 0.03 | 0.03 | 0.03 | 61 | 1020.9 |
| 20260507132656 | 3 | 287 | 0.0 | 1.6 | 0.03 | 0.03 | 0.03 | 66 | 1020.9 |
| 20260507132154 | 3 | 287 | 0.0 | 1.6 | 0.03 | 0.03 | 0.03 | 54 | 1020.9 |
| 20260507131644 | 3 | 291 | 0.0 | 0.0 | 0.03 | 0.03 | 0.03 | 55 | 1020.7 |
| 20260507131138 | 2 | 239 | 0.0 | 0.0 | 0.03 | 0.03 | 0.03 | 51 | 1020.7 |
| 20260507130632 | 2 | 199 | 0.0 | 0.0 | 0.00 | 0.00 | 0.00 | 55 | 1020.7 |
| 20260507130126 | 2 | 199 | 0.0 | 0.0 | 0.00 | 0.00 | 0.00 | 54 | 1020.7 |
| 20260507125620 | 2 | 197 | 0.0 | 0.0 | 0.00 | 0.00 | 0.00 | 55 | 1020.7 |
| 20260507125115 | 2 | 195 | 0.0 | 0.0 | 0.00 | 0.00 | 0.00 | 55 | 1020.7 |
| 20260507124827 | 2 | 194 | 0.0 | 0.0 | 0.00 | 0.00 | 0.00 | 53 | 1020.7 |
| 20260507124106 | 1 | 194 | 0.0 | 0.0 | 0.00 | 0.00 | 0.00 | 54 | 1020.5 |
| 20260507123606 | 1 | 194 | 0.0 | 0.0 | 0.00 | 0.00 | 0.00 | 55 | 1020.4 |
| 20260507123104 | 1 | 194 | 0.0 | 0.0 | 0.00 | 0.00 | 0.00 | 55 | 1020.4 |
| 20260507122604 | 0 | 194 | 0.0 | 0.0 | 0.00 | 0.00 | 0.00 | 54 | 1020.3 |
| 20260507122104 | 0 | 194 | 0.0 | 0.0 | 0.00 | 0.00 | 0.00 | 56 | 1020.2 |
| 20260507121602 | 0 | 193 | 0.0 | 0.0 | 0.00 | 0.00 | 0.00 | 54 | 1020.2 |
| 20260507121101 | 0 | 194 | 0.0 | 0.0 | 0.00 | 0.00 | 0.00 | 56 | 1020.2 |
| 20260507120602 | 0 | 193 | 0.0 | 0.0 | 0.00 | 0.00 | 0.00 | 55 | 1020.0 |
| 20260507120100 | 0 | 193 | 0.0 | 0.0 | 0.00 | 0.00 | 0.00 | 55 | 1020.0 |
| 20260507115600 | 0 | 194 | 0.0 | 0.0 | 0.00 | 0.00 | 0.00 | 55 | 1020.0 |
| 20260507115100 | 0 | 193 | 0.0 | 0.0 | 0.00 | 0.00 | 0.00 | 55 | 1019.9 |
| 20260507114559 | 0 | 193 | 0.0 | 0.0 | 0.00 | 0.00 | 0.00 | 55 | 1019.9 |
| 20260507114101 | 0 | 194 | 0.0 | 0.0 | 0.00 | 0.00 | 0.00 | 56 | 1019.9 |
| 20260507113557 | 0 | 194 | 0.0 | 0.0 | 0.00 | 0.00 | 0.00 | 57 | 1019.9 |
| 20260507113058 | 0 | 194 | 0.0 | 0.0 | 0.00 | 0.00 | 0.00 | 57 | 1019.9 |
| 20260507112556 | 0 | 193 | 0.0 | 0.0 | 0.00 | 0.00 | 0.00 | 58 | 1020.0 |
| 20260507112055 | 0 | 194 | 0.0 | 0.0 | 0.00 | 0.00 | 0.00 | 58 | 1020.0 |
| 20260507111557 | 0 | 194 | 0.0 | 0.0 | 0.00 | 0.00 | 0.00 | 59 | 1020.0 |
| 20260507111054 | 0 | 193 | 0.0 | 0.0 | 0.00 | 0.00 | 0.00 | 58 | 1019.9 |
| 20260507110821 | 0 | 193 | 0.0 | 0.0 | 0.00 | 0.00 | 0.00 | 59 | 1019.8 |
| 20260507110320 | 0 | 194 | 0.0 | 0.0 | 0.00 | 0.00 | 0.00 | 60 | 1019.9 |
| 20260507105552 | 0 | 194 | 0.0 | 0.0 | 0.00 | 0.00 | 0.00 | 61 | 1019.8 |
| 20260507105050 | 0 | 194 | 0.0 | 0.0 | 0.00 | 0.00 | 0.00 | 60 | 1019.6 |
| 20260507104550 | 0 | 193 | 0.0 | 0.0 | 0.00 | 0.00 | 0.00 | 61 | 1019.6 |
| 20260507104308 | 0 | 194 | 0.0 | 0.0 | 0.00 | 0.00 | 0.00 | 61 | 1019.8 |
| 20260507103550 | -1 | 194 | 0.0 | 0.0 | 0.00 | 0.00 | 0.00 | 64 | 1019.9 |
| 20260507103049 | -1 | 194 | 0.0 | 0.0 | 0.00 | 0.00 | 0.00 | 64 | 1019.9 |
| 20260507102549 | -1 | 194 | 0.0 | 0.0 | 0.00 | 0.00 | 0.00 | 64 | 1019.9 |
| 20260507102050 | 0 | 194 | 0.0 | 0.0 | 0.00 | 0.00 | 0.00 | 64 | 1019.8 |
| 20260507101550 | -1 | 193 | 0.0 | 0.0 | 0.00 | 0.00 | 0.00 | 64 | 1019.8 |
| 20260507101046 | -1 | 194 | 0.0 | 0.0 | 0.00 | 0.00 | 0.00 | 65 | 1019.8 |
| 20260507100547 | -1 | 194 | 0.0 | 0.0 | 0.00 | 0.00 | 0.00 | 66 | 1019.8 |
| 20260507100046 | -1 | 194 | 0.0 | 0.0 | 0.00 | 0.00 | 0.00 | 66 | 1019.6 |
| 20260507095546 | -1 | 193 | 0.0 | 0.0 | 0.00 | 0.00 | 0.00 | 67 | 1019.8 |
| 20260507095312 | -1 | 194 | 0.0 | 0.0 | 0.00 | 0.00 | 0.00 | 70 | 1019.8 |
| 20260507094546 | -1 | 193 | 0.0 | 0.0 | 0.00 | 0.00 | 0.00 | 68 | 1019.9 |
| 20260507094046 | -1 | 194 | 0.0 | 0.0 | 0.00 | 0.00 | 0.00 | 70 | 1019.9 |
| 20260507093546 | -1 | 194 | 0.0 | 0.0 | 0.00 | 0.00 | 0.00 | 70 | 1019.8 |
| 20260507093046 | -1 | 194 | 0.0 | 0.0 | 0.00 | 0.00 | 0.00 | 72 | 1019.8 |
| 20260507092545 | -2 | 193 | 0.0 | 0.0 | 0.00 | 0.00 | 0.00 | 74 | 1019.8 |
| 20260507092045 | -2 | 194 | 0.0 | 0.0 | 0.00 | 0.00 | 0.00 | 73 | 1019.9 |
| 20260507091545 | -2 | 194 | 0.0 | 0.0 | 0.00 | 0.00 | 0.00 | 73 | 1019.9 |
| 20260507091045 | -2 | 194 | 0.0 | 0.0 | 0.00 | 0.00 | 0.00 | 75 | 1019.9 |
| 20260507090545 | -2 | 193 | 0.0 | 0.0 | 0.00 | 0.00 | 0.00 | 76 | 1019.9 |
| 20260507090312 | -2 | 194 | 0.0 | 0.0 | 0.00 | 0.00 | 0.00 | 75 | 1019.9 |
| 20260507085547 | -2 | 193 | 0.0 | 0.0 | 0.00 | 0.00 | 0.00 | 76 | 1019.8 |
| 20260507085314 | -2 | 194 | 0.0 | 0.0 | 0.00 | 0.00 | 0.00 | 77 | 1019.8 |
| 20260507084545 | -3 | 194 | 0.0 | 0.0 | 0.00 | 0.00 | 0.00 | 79 | 1019.8 |
| 20260507084038 | -3 | 194 | 0.0 | 0.0 | 0.00 | 0.00 | 0.00 | 80 | 1019.9 |
| 20260507083533 | -3 | 193 | 0.0 | 0.0 | 0.00 | 0.00 | 0.00 | 81 | 1020.0 |
| 20260507083028 | -3 | 193 | 0.0 | 0.0 | 0.00 | 0.00 | 0.00 | 82 | 1020.0 |
| 20260507082522 | -3 | 194 | 0.0 | 0.0 | 0.00 | 0.00 | 0.00 | 82 | 1020.0 |
| 20260507082015 | -3 | 194 | 0.0 | 0.0 | 0.00 | 0.00 | 0.00 | 83 | 1020.0 |
| 20260507081508 | -3 | 193 | 0.0 | 0.0 | 0.00 | 0.00 | 0.00 | 84 | 1020.0 |
| 20260507081003 | -3 | 194 | 0.0 | 0.0 | 0.00 | 0.00 | 0.00 | 84 | 1020.0 |
| 20260507080457 | -3 | 194 | 0.0 | 0.0 | 0.00 | 0.00 | 0.00 | 84 | 1020.0 |
| 20260507075951 | -4 | 194 | 0.0 | 0.0 | 0.00 | 0.00 | 0.00 | 85 | 1020.0 |
| 20260507075445 | -4 | 194 | 0.0 | 0.0 | 0.00 | 0.00 | 0.00 | 85 | 1020.0 |
| 20260507075200 | -4 | 193 | 0.0 | 0.0 | 0.00 | 0.00 | 0.00 | 85 | 1020.2 |
| 20260507074432 | -4 | 194 | 0.0 | 0.0 | 0.00 | 0.00 | 0.00 | 85 | 1020.2 |
| 20260507073927 | -4 | 193 | 0.0 | 0.0 | 0.00 | 0.00 | 0.00 | 85 | 1020.2 |
| 20260507073421 | -4 | 193 | 0.0 | 0.0 | 0.00 | 0.00 | 0.00 | 86 | 1020.3 |
| 20260507072916 | -4 | 194 | 0.0 | 0.0 | 0.00 | 0.00 | 0.00 | 85 | 1020.3 |
| 20260507072628 | -4 | 194 | 0.0 | 0.0 | 0.00 | 0.00 | 0.00 | 85 | 1020.2 |
| 20260507071904 | -3 | 193 | 0.0 | 0.0 | 0.00 | 0.00 | 0.00 | 85 | 1020.2 |
| 20260507071357 | -3 | 194 | 0.0 | 0.0 | 0.00 | 0.00 | 0.00 | 85 | 1020.2 |
| 20260507070851 | -3 | 194 | 0.0 | 0.0 | 0.00 | 0.00 | 0.00 | 85 | 1020.2 |
| 20260507070345 | -3 | 194 | 0.0 | 0.0 | 0.00 | 0.00 | 0.00 | 84 | 1020.3 |
| 20260507065839 | -3 | 194 | 0.0 | 0.0 | 0.00 | 0.00 | 0.00 | 82 | 1020.3 |
| 20260507065333 | -3 | 194 | 0.0 | 0.0 | 0.00 | 0.00 | 0.00 | 84 | 1020.3 |
| 20260507064827 | -4 | 193 | 0.0 | 0.0 | 0.00 | 0.00 | 0.00 | 84 | 1020.3 |
| 20260507064320 | -3 | 193 | 0.0 | 0.0 | 0.00 | 0.00 | 0.00 | 85 | 1020.3 |
| 20260507064258 | -3 | 194 | 0.0 | 0.0 | 0.00 | 0.00 | 0.00 | 85 | 1020.2 |
| 20260507063308 | -3 | 193 | 0.0 | 0.0 | 0.00 | 0.00 | 0.00 | 83 | 1020.2 |
| 20260507062803 | -3 | 193 | 0.0 | 0.0 | 0.00 | 0.00 | 0.00 | 82 | 1020.2 |
| 20260507062306 | -3 | 193 | 0.0 | 0.0 | 0.00 | 0.00 | 0.00 | 83 | 1020.0 |
| 20260507061808 | -3 | 194 | 0.0 | 0.0 | 0.00 | 0.00 | 0.00 | 82 | 1020.0 |
| 20260507060105 | -3 | 193 | 0.0 | 0.0 | 0.00 | 0.46 | 0.00 | 84 | 1019.9 |
| 20260507055829 | -3 | 194 | 0.0 | 0.0 | 0.00 | 0.46 | 0.48 | 85 | 1019.8 |
| 20260507055105 | -3 | 194 | 0.0 | 0.0 | 0.00 | 0.46 | 0.48 | 85 | 1019.8 |
| 20260507054605 | -3 | 193 | 0.0 | 0.0 | 0.00 | 0.46 | 0.48 | 85 | 1019.6 |
| 20260507054104 | -3 | 193 | 0.0 | 0.0 | 0.00 | 0.46 | 0.48 | 86 | 1019.6 |
| 20260507053822 | -3 | 194 | 0.0 | 0.0 | 0.00 | 0.46 | 0.48 | 85 | 1019.6 |
| 20260507053106 | -3 | 194 | 0.0 | 0.0 | 0.00 | 0.46 | 0.48 | 86 | 1019.5 |
| 20260507052605 | -4 | 194 | 0.0 | 0.0 | 0.00 | 0.46 | 0.48 | 86 | 1019.4 |
| 20260507052100 | -4 | 193 | 0.0 | 0.0 | 0.00 | 0.46 | 0.48 | 88 | 1019.5 |
| 20260507051601 | -4 | 193 | 0.0 | 0.0 | 0.00 | 0.46 | 0.48 | 86 | 1019.5 |
| 20260507051102 | -4 | 194 | 0.0 | 0.0 | 0.00 | 0.46 | 0.48 | 86 | 1019.4 |
| 20260507050600 | -4 | 194 | 0.0 | 0.0 | 0.00 | 0.46 | 0.48 | 87 | 1019.4 |
| 20260507050100 | -4 | 193 | 0.0 | 0.0 | 0.00 | 0.46 | 0.48 | 87 | 1019.4 |
| 20260507045602 | -4 | 193 | 0.0 | 0.0 | 0.00 | 0.46 | 0.48 | 87 | 1019.4 |
| 20260507045100 | -4 | 194 | 0.0 | 0.0 | 0.00 | 0.46 | 0.48 | 86 | 1019.4 |
| 20260507044601 | -4 | 193 | 0.0 | 0.0 | 0.00 | 0.46 | 0.48 | 87 | 1019.4 |
| 20260507044101 | -4 | 193 | 0.0 | 0.0 | 0.00 | 0.46 | 0.48 | 88 | 1019.4 |
| 20260507043822 | -4 | 193 | 0.0 | 0.0 | 0.00 | 0.46 | 0.48 | 88 | 1019.2 |
| 20260507043101 | -4 | 194 | 0.0 | 0.0 | 0.00 | 0.46 | 0.48 | 88 | 1019.1 |
| 20260507042601 | -4 | 194 | 0.0 | 0.0 | 0.00 | 0.46 | 0.48 | 89 | 1019.2 |
| 20260507042100 | -4 | 193 | 0.0 | 0.0 | 0.00 | 0.46 | 0.48 | 89 | 1019.2 |
| 20260507041601 | -4 | 194 | 0.0 | 0.0 | 0.00 | 0.46 | 0.48 | 89 | 1019.2 |
| 20260507041101 | -4 | 193 | 0.0 | 0.0 | 0.00 | 0.46 | 0.48 | 89 | 1019.2 |
| 20260507040600 | -4 | 194 | 0.0 | 0.0 | 0.00 | 0.46 | 0.48 | 90 | 1019.1 |
| 20260507040058 | -4 | 194 | 0.0 | 0.0 | 0.00 | 0.46 | 0.48 | 90 | 1019.1 |
| 20260507035558 | -4 | 193 | 0.0 | 0.0 | 0.00 | 0.46 | 0.48 | 89 | 1019.1 |
| 20260507035051 | -4 | 194 | 0.0 | 0.0 | 0.00 | 0.46 | 0.48 | 88 | 1019.0 |
| 20260507034547 | -4 | 194 | 0.0 | 0.0 | 0.00 | 0.46 | 0.48 | 90 | 1019.0 |
| 20260507034259 | -4 | 193 | 0.0 | 0.0 | 0.00 | 0.46 | 0.48 | 89 | 1019.0 |
| 20260507033534 | -4 | 194 | 0.0 | 0.0 | 0.00 | 0.46 | 0.48 | 89 | 1019.0 |
| 20260507033028 | -4 | 193 | 0.0 | 0.0 | 0.00 | 0.46 | 0.48 | 90 | 1019.0 |
| 20260507032522 | -4 | 194 | 0.0 | 0.0 | 0.00 | 0.46 | 0.48 | 90 | 1018.8 |
| 20260507032017 | -4 | 194 | 0.0 | 0.0 | 0.00 | 0.46 | 0.48 | 90 | 1018.8 |
| 20260507031511 | -4 | 193 | 0.0 | 0.0 | 0.00 | 0.46 | 0.48 | 90 | 1018.7 |
| 20260507031005 | -4 | 194 | 0.0 | 0.0 | 0.00 | 0.46 | 0.48 | 90 | 1018.7 |
| 20260507030727 | -4 | 194 | 0.0 | 0.0 | 0.00 | 0.46 | 0.48 | 90 | 1018.6 |
| 20260507025953 | -4 | 194 | 0.0 | 0.0 | 0.00 | 0.46 | 0.48 | 91 | 1018.6 |
| 20260507025447 | -4 | 193 | 0.0 | 0.0 | 0.00 | 0.46 | 0.48 | 91 | 1018.6 |
| 20260507024940 | -4 | 194 | 0.0 | 0.0 | 0.00 | 0.46 | 0.48 | 91 | 1018.6 |
| 20260507024434 | -4 | 193 | 0.0 | 0.0 | 0.00 | 0.46 | 0.48 | 91 | 1018.6 |
| 20260507023928 | -4 | 194 | 0.0 | 0.0 | 0.00 | 0.46 | 0.48 | 91 | 1018.6 |
| 20260507023422 | -4 | 194 | 0.0 | 0.0 | 0.00 | 0.46 | 0.48 | 91 | 1018.6 |
| 20260507022916 | -4 | 194 | 0.0 | 0.0 | 0.00 | 0.46 | 0.48 | 91 | 1018.4 |
| 20260507022409 | -4 | 193 | 0.0 | 0.0 | 0.00 | 0.46 | 0.48 | 91 | 1018.3 |
| 20260507021904 | -4 | 194 | 0.0 | 0.0 | 0.00 | 0.46 | 0.48 | 91 | 1018.3 |
| 20260507021358 | -4 | 194 | 0.0 | 0.0 | 0.00 | 0.46 | 0.48 | 91 | 1018.3 |
| 20260507020851 | -4 | 193 | 0.0 | 0.0 | 0.00 | 0.46 | 0.48 | 91 | 1018.3 |
| 20260507020346 | -4 | 194 | 0.0 | 0.0 | 0.00 | 0.46 | 0.48 | 91 | 1018.2 |
| 20260507020322 | -4 | 193 | 0.0 | 0.0 | 0.00 | 0.46 | 0.48 | 91 | 1018.3 |
| 20260507015333 | -4 | 193 | 0.0 | 0.0 | 0.00 | 0.46 | 0.48 | 91 | 1018.3 |
| 20260507014827 | -4 | 193 | 0.0 | 0.0 | 0.00 | 0.46 | 0.48 | 91 | 1018.3 |
| 20260507014323 | -4 | 193 | 0.0 | 0.0 | 0.00 | 0.46 | 0.48 | 91 | 1018.3 |
| 20260507013815 | -4 | 193 | 0.0 | 0.0 | 0.00 | 0.46 | 0.48 | 91 | 1018.2 |
| 20260507013536 | -3 | 194 | 0.0 | 0.0 | 0.00 | 0.46 | 0.48 | 91 | 1018.2 |
| 20260507012804 | -3 | 194 | 0.0 | 0.0 | 0.00 | 0.46 | 0.48 | 92 | 1018.2 |
| 20260507012257 | -4 | 193 | 0.0 | 0.0 | 0.00 | 0.46 | 0.48 | 92 | 1018.0 |
| 20260507012010 | -4 | 193 | 0.0 | 0.0 | 0.00 | 0.46 | 0.48 | 92 | 1018.0 |
| 20260507011504 | -4 | 194 | 0.0 | 0.0 | 0.00 | 0.46 | 0.48 | 92 | 1017.9 |
| 20260507010739 | -4 | 194 | 0.0 | 0.0 | 0.00 | 0.46 | 0.48 | 92 | 1017.9 |
| 20260507010721 | -4 | 193 | 0.0 | 0.0 | 0.00 | 0.46 | 0.48 | 92 | 1017.9 |
| 20260507005728 | -3 | 194 | 0.0 | 0.0 | 0.00 | 0.46 | 0.48 | 92 | 1017.9 |
| 20260507005223 | -3 | 194 | 0.0 | 0.0 | 0.00 | 0.46 | 0.48 | 92 | 1017.9 |
| 20260507004716 | -3 | 193 | 0.0 | 0.0 | 0.00 | 0.46 | 0.48 | 92 | 1017.9 |
| 20260507004210 | -3 | 194 | 0.0 | 0.0 | 0.00 | 0.46 | 0.48 | 92 | 1017.8 |
| 20260507003703 | -3 | 193 | 0.0 | 0.0 | 0.00 | 0.46 | 0.48 | 92 | 1017.8 |
| 20260507003415 | -3 | 193 | 0.0 | 0.0 | 0.00 | 0.46 | 0.48 | 92 | 1017.8 |
| 20260507002652 | -3 | 194 | 0.0 | 0.0 | 0.00 | 0.46 | 0.48 | 92 | 1017.8 |
| 20260507002416 | -3 | 194 | 0.0 | 0.0 | 0.00 | 0.46 | 0.48 | 92 | 1017.6 |
| 20260507001906 | -3 | 194 | 0.0 | 0.0 | 0.00 | 0.46 | 0.48 | 92 | 1017.6 |
| 20260507001133 | -3 | 194 | 0.0 | 0.0 | 0.00 | 0.46 | 0.48 | 92 | 1017.8 |
| 20260507000627 | -3 | 194 | 0.0 | 0.0 | 0.00 | 0.46 | 0.48 | 92 | 1017.8 |
| 20260507000123 | -3 | 194 | 0.0 | 0.0 | 0.00 | 0.46 | 0.48 | 92 | 1017.8 |
| 20260506235616 | -3 | 194 | 0.0 | 0.0 | 0.00 | 0.46 | 0.48 | 92 | 1017.8 |
| 20260506235109 | -3 | 194 | 0.0 | 0.0 | 0.00 | 0.46 | 0.48 | 92 | 1017.8 |
| 20260506234605 | -3 | 193 | 0.0 | 0.0 | 0.00 | 0.46 | 0.48 | 92 | 1017.8 |
| 20260506234059 | -3 | 194 | 0.0 | 0.0 | 0.00 | 0.46 | 0.48 | 92 | 1017.8 |
| 20260506233813 | -3 | 194 | 0.0 | 0.0 | 0.00 | 0.46 | 0.48 | 92 | 1017.8 |
| 20260506233306 | -3 | 194 | 0.0 | 0.0 | 0.00 | 0.46 | 0.48 | 92 | 1017.8 |